| time (UTC) | temp F | wind direction | speed MPH | gust MPH | rain 1hr in | rain 24hr in | rain mn in | humidity % | barometer mb |
| 20260505010904 | 68 | 187 | 2.0 | 4.0 | 0.00 | 0.00 | 0.00 | 64 | 1010.9 |
| 20260505010005 | 69 | 184 | 1.0 | 3.0 | 0.00 | 0.00 | 0.00 | 62 | 1010.8 |
| 20260505005404 | 69 | 181 | 1.0 | 3.0 | 0.00 | 0.00 | 0.00 | 59 | 1011.0 |
| 20260505004504 | 70 | 179 | 2.0 | 3.0 | 0.00 | 0.00 | 0.00 | 57 | 1011.0 |
| 20260505003604 | 71 | 179 | 2.0 | 5.0 | 0.00 | 0.00 | 0.00 | 55 | 1011.0 |
| 20260505002704 | 72 | 188 | 2.0 | 6.0 | 0.00 | 0.00 | 0.00 | 55 | 1010.9 |
| 20260505001804 | 73 | 189 | 3.0 | 6.0 | 0.00 | 0.00 | 0.00 | 51 | 1010.9 |
| 20260505000904 | 74 | 195 | 3.0 | 8.0 | 0.00 | 0.00 | 0.00 | 48 | 1010.9 |
| 20260505000004 | 74 | 191 | 3.0 | 9.0 | 0.00 | 0.00 | 0.00 | 47 | 1010.9 |
| 20260504235425 | 74 | 207 | 3.0 | 12.0 | 0.00 | 0.00 | 0.00 | 47 | 1010.9 |
| 20260504234505 | 75 | 193 | 3.0 | 8.0 | 0.00 | 0.00 | 0.00 | 45 | 1010.8 |
| 20260504233604 | 76 | 191 | 4.0 | 12.0 | 0.00 | 0.00 | 0.00 | 46 | 1010.9 |
| 20260504232704 | 76 | 183 | 6.0 | 12.0 | 0.00 | 0.00 | 0.00 | 43 | 1010.9 |
| 20260504231804 | 76 | 189 | 6.0 | 17.0 | 0.00 | 0.00 | 0.00 | 43 | 1010.8 |
| 20260504230925 | 77 | 191 | 6.0 | 16.0 | 0.00 | 0.00 | 0.00 | 42 | 1010.9 |
| 20260504230005 | 78 | 196 | 5.0 | 10.0 | 0.00 | 0.00 | 0.00 | 42 | 1010.9 |
| 20260504225404 | 78 | 206 | 5.0 | 11.0 | 0.00 | 0.00 | 0.00 | 41 | 1010.9 |
| 20260504224504 | 79 | 202 | 5.0 | 12.0 | 0.00 | 0.00 | 0.00 | 42 | 1010.9 |
| 20260504223604 | 79 | 210 | 5.0 | 16.0 | 0.00 | 0.00 | 0.00 | 42 | 1010.9 |
| 20260504222704 | 80 | 210 | 5.0 | 14.0 | 0.00 | 0.00 | 0.00 | 39 | 1010.9 |
| 20260504221825 | 80 | 204 | 7.0 | 17.0 | 0.00 | 0.00 | 0.00 | 40 | 1010.9 |
| 20260504220904 | 80 | 194 | 7.0 | 15.0 | 0.00 | 0.00 | 0.00 | 40 | 1011.1 |
| 20260504220025 | 80 | 199 | 6.0 | 19.0 | 0.00 | 0.00 | 0.00 | 41 | 1011.1 |
| 20260504215404 | 80 | 200 | 6.0 | 19.0 | 0.00 | 0.00 | 0.00 | 39 | 1011.0 |
| 20260504214504 | 81 | 202 | 6.0 | 13.0 | 0.00 | 0.00 | 0.00 | 41 | 1011.0 |
| 20260504213604 | 81 | 207 | 5.0 | 13.0 | 0.00 | 0.00 | 0.00 | 39 | 1011.1 |
| 20260504212725 | 82 | 203 | 4.0 | 11.0 | 0.00 | 0.00 | 0.00 | 43 | 1011.3 |
| 20260504211804 | 81 | 204 | 6.0 | 16.0 | 0.00 | 0.00 | 0.00 | 42 | 1011.2 |
| 20260504210904 | 81 | 196 | 5.0 | 13.0 | 0.00 | 0.00 | 0.00 | 39 | 1011.2 |
| 20260504210004 | 80 | 200 | 8.0 | 20.0 | 0.00 | 0.00 | 0.00 | 40 | 1011.5 |
| 20260504205404 | 80 | 195 | 9.0 | 20.0 | 0.00 | 0.00 | 0.00 | 41 | 1011.7 |
| 20260504204504 | 81 | 189 | 7.0 | 20.0 | 0.00 | 0.00 | 0.00 | 43 | 1011.7 |
| 20260504203604 | 81 | 185 | 6.0 | 14.0 | 0.00 | 0.00 | 0.00 | 40 | 1011.6 |
| 20260504202704 | 80 | 189 | 8.0 | 16.0 | 0.00 | 0.00 | 0.00 | 40 | 1011.9 |
| 20260504201804 | 81 | 200 | 5.0 | 13.0 | 0.00 | 0.00 | 0.00 | 42 | 1012.0 |
| 20260504200925 | 81 | 207 | 6.0 | 15.0 | 0.00 | 0.00 | 0.00 | 41 | 1012.2 |
| 20260504200004 | 81 | 189 | 7.0 | 16.0 | 0.00 | 0.00 | 0.00 | 40 | 1012.3 |
| 20260504195404 | 81 | 183 | 9.0 | 21.0 | 0.00 | 0.00 | 0.00 | 39 | 1012.4 |
| 20260504194504 | 81 | 188 | 6.0 | 14.0 | 0.00 | 0.00 | 0.00 | 41 | 1012.4 |
| 20260504193604 | 81 | 204 | 5.0 | 15.0 | 0.00 | 0.00 | 0.00 | 43 | 1012.7 |
| 20260504192704 | 80 | 211 | 5.0 | 14.0 | 0.00 | 0.00 | 0.00 | 42 | 1012.7 |
| 20260504191804 | 81 | 202 | 7.0 | 14.0 | 0.00 | 0.00 | 0.00 | 44 | 1012.7 |
| 20260504190925 | 81 | 189 | 5.0 | 14.0 | 0.00 | 0.00 | 0.00 | 42 | 1012.8 |
| 20260504190004 | 80 | 193 | 7.0 | 14.0 | 0.00 | 0.00 | 0.00 | 43 | 1012.9 |
| 20260504185404 | 80 | 189 | 6.0 | 14.0 | 0.00 | 0.00 | 0.00 | 43 | 1013.1 |
| 20260504184504 | 80 | 199 | 6.0 | 17.0 | 0.00 | 0.00 | 0.00 | 41 | 1013.1 |
| 20260504183604 | 80 | 208 | 5.0 | 14.0 | 0.00 | 0.00 | 0.00 | 37 | 1013.0 |
| 20260504182704 | 79 | 206 | 5.0 | 14.0 | 0.00 | 0.00 | 0.00 | 44 | 1013.1 |
| 20260504181804 | 80 | 189 | 5.0 | 15.0 | 0.00 | 0.00 | 0.00 | 44 | 1013.2 |
| 20260504180904 | 79 | 187 | 7.0 | 16.0 | 0.00 | 0.00 | 0.00 | 44 | 1013.4 |
| 20260504180004 | 80 | 195 | 5.0 | 14.0 | 0.00 | 0.00 | 0.00 | 43 | 1013.2 |
| 20260504175404 | 79 | 197 | 5.0 | 13.0 | 0.00 | 0.00 | 0.00 | 45 | 1013.3 |
| 20260504174504 | 79 | 190 | 6.0 | 16.0 | 0.00 | 0.00 | 0.00 | 46 | 1013.4 |
| 20260504173604 | 79 | 195 | 6.0 | 17.0 | 0.00 | 0.00 | 0.00 | 43 | 1013.6 |
| 20260504172704 | 79 | 188 | 5.0 | 11.0 | 0.00 | 0.00 | 0.00 | 47 | 1013.8 |
| 20260504171804 | 78 | 206 | 6.0 | 12.0 | 0.00 | 0.00 | 0.00 | 51 | 1013.9 |
| 20260504170925 | 77 | 208 | 6.0 | 12.0 | 0.00 | 0.00 | 0.00 | 48 | 1014.0 |
| 20260504150903 | 72 | 205 | 4.0 | 9.0 | 0.00 | 0.00 | 0.00 | 59 | 1015.3 |
| 20260504140925 | 63 | 201 | 3.0 | 10.0 | 0.00 | 0.00 | 0.00 | 73 | 1015.5 |
| 20260504081803 | 53 | 185 | 2.0 | 3.0 | 0.00 | 0.00 | 0.00 | 79 | 1015.2 |
| 20260504080903 | 54 | 195 | 2.0 | 4.0 | 0.00 | 0.00 | 0.00 | 77 | 1015.2 |
| 20260504050006 | 52 | 175 | 1.0 | 3.0 | 0.00 | 0.00 | 0.00 | 84 | 1016.7 |
| 20260504045404 | 52 | 169 | 2.0 | 3.0 | 0.00 | 0.00 | 0.00 | 83 | 1016.6 |
| 20260504044505 | 52 | 155 | 2.0 | 3.0 | 0.00 | 0.00 | 0.00 | 84 | 1016.7 |
| 20260504043625 | 52 | 154 | 1.0 | 2.0 | 0.00 | 0.00 | 0.00 | 84 | 1016.6 |
| 20260504042725 | 52 | 154 | 1.0 | 3.0 | 0.00 | 0.00 | 0.00 | 84 | 1016.7 |
| 20260504041804 | 52 | 154 | 1.0 | 2.0 | 0.00 | 0.00 | 0.00 | 84 | 1016.8 |
| 20260504040905 | 52 | 154 | 1.0 | 2.0 | 0.00 | 0.00 | 0.00 | 85 | 1017.0 |
| 20260504040026 | 53 | 154 | 1.0 | 1.0 | 0.00 | 0.00 | 0.00 | 84 | 1017.0 |
| 20260504035405 | 53 | 154 | 0.0 | 1.0 | 0.00 | 0.00 | 0.00 | 83 | 1017.1 |
| 20260504034505 | 53 | 0 | 0.0 | 0.0 | 0.00 | 0.00 | 0.00 | 82 | 1017.1 |
| 20260504033604 | 53 | 0 | 0.0 | 0.0 | 0.00 | 0.00 | 0.00 | 81 | 1017.3 |
| 20260504032704 | 53 | 0 | 0.0 | 0.0 | 0.00 | 0.00 | 0.00 | 79 | 1017.1 |
| 20260504031804 | 54 | 0 | 0.0 | 0.0 | 0.00 | 0.00 | 0.00 | 79 | 1017.2 |
| 20260504030904 | 54 | 0 | 0.0 | 0.0 | 0.00 | 0.00 | 0.00 | 79 | 1017.3 |
| 20260504030004 | 54 | 0 | 0.0 | 0.0 | 0.00 | 0.00 | 0.00 | 78 | 1017.2 |
| 20260504025404 | 54 | 153 | 0.0 | 1.0 | 0.00 | 0.00 | 0.00 | 76 | 1017.2 |
| 20260504024505 | 55 | 0 | 0.0 | 0.0 | 0.00 | 0.00 | 0.00 | 77 | 1017.0 |
| 20260504023625 | 55 | 153 | 0.0 | 1.0 | 0.00 | 0.00 | 0.00 | 77 | 1016.8 |
| 20260504022704 | 56 | 0 | 0.0 | 0.0 | 0.00 | 0.00 | 0.00 | 75 | 1017.0 |
| 20260504021804 | 56 | 0 | 0.0 | 0.0 | 0.00 | 0.00 | 0.00 | 71 | 1017.0 |
| 20260504020905 | 57 | 0 | 0.0 | 0.0 | 0.00 | 0.00 | 0.00 | 71 | 1016.8 |
| 20260504020025 | 57 | 0 | 0.0 | 0.0 | 0.00 | 0.00 | 0.00 | 71 | 1016.9 |
| 20260504015405 | 58 | 0 | 0.0 | 0.0 | 0.00 | 0.00 | 0.00 | 69 | 1016.9 |
| 20260504014504 | 58 | 0 | 0.0 | 0.0 | 0.00 | 0.00 | 0.00 | 68 | 1016.8 |
| 20260504013604 | 59 | 0 | 0.0 | 0.0 | 0.00 | 0.00 | 0.00 | 68 | 1016.7 |
| 20260504012725 | 59 | 0 | 0.0 | 0.0 | 0.00 | 0.00 | 0.00 | 61 | 1016.7 |
| 20260504011804 | 60 | 0 | 0.0 | 0.0 | 0.00 | 0.00 | 0.00 | 60 | 1016.5 |